sat.trackr.live / text

‹ back to catalog

STARLINK-5902

NORAD 55998 · 2023-042N

PAYLOAD ACTIVE UNKNOWN

§ Identity

Operator
Country
US
Launch date
2023-03-24
Launch site
AFETR
Launch vehicle
Mass (kg)
RCS (m²)

Purposes: comms

External: N2YO · Heavens-Above · Gunter

§ Orbital elements

Epoch: 2026-09-20T16:25:35.450112Z

Period
94.27 min
Inclination
43.0042°
Eccentricity
0.0001338
Mean motion
15.27578505 rev/d
Perigee alt
482.1 km
Apogee alt
484.0 km
Semi-major
6,861.2 km
B*
1.2782e-5
RAAN
38.1820°
Arg perigee
262.1608°
Mean anomaly
97.9091°
Rev number
19,269

§ Raw data

STARLINK-59021 55998U 23042N   26263.68443808  .00000090  00000+0  12782-4 0  99992 55998  43.0042  38.1820 0001338 262.1608  97.9091 15.27578505192690

JSON: /api/v1/satellites/55998 · /tle

For live sub-satellite position, see the globe view (requires WebGL).

§ Visibility from observer

Set your observer location to see the next 7 days of passes ≥ 10°. The values pass through the URL so the page stays shareable.

No JS? Fill the form by hand. The geolocation button needs JavaScript.